User: anonymous   Login
Location: Beugnon
(47.6222°N, 3.7850°E)
Time: 17:49:01
(UTC+00:00)
Language:

Cosmos 1023 Rocket - Orbit

View from above orbital plane
View from above orbital plane
View from above satellite
View from above satellite

Ground track
Ground track

The orbit data is extracted from the following two-line orbital elements,

1 10962U 78063B   20184.86390394 +.00000036 +00000-0 +19371-4 0  9993
2 10962 074.0806 326.5149 0026073 301.9940 057.8682 14.41199910205832
Epoch (UTC): 02 July 2020 20:44:01
Eccentricity: 0.0026073
inclination: 74.0806°
perigee height: 736 km
apogee height: 773 km
right ascension of ascending node: 326.5149°
argument of perigee: 301.9940°
revolutions per day: 14.41199910
mean anomaly at epoch: 57.8682°
orbit number at epoch: 20583

The dashed part of the orbit path shows where the satellite is in the earth's shadow,  

DLR